COSMOS 1275 DEB, 42206

Orbit data source: Space-Track

COSMOS 1275 DEB, 42206 is space debris in LEO originally from a launch on Thu, 04 Jun 1981 UTC launched from the Plesetsk Missile And Space Complex (PKMTR). Debris objects in space refer to the collection of defunct objects orbiting the Earth. Examples of debris include non-operational satellites, rocket bodies, and fragments generated from explosions, collisions, or faulty payload assembly.

Loading next visibility...
Identifier
42206, 1981-053TW
Orbit
LEO
Country
Flag of CISCIS
Related business
Manufacturer
Unknown
Mission
Spacecraft
Bus & Motor
Unknown
Mass
Unknown
Launch date (UTC)
1981-06-04 (44 years ago)
Launch vehicle
Unknown
Launch site
Plesetsk Missile And Space Complex (PKMTR)
Object type
Payload
Rocket body
Debris
Shape & HBR
Unknown shape, 0.1 m
Radar Cross Section
Small (<0.1 m²)

Expand to show TLE details & history
Last TLE update: 2 days ago

TLE from 2 days ago
0 COSMOS 1275 DEB
1 42206U 81053TW  25284.75038049  .00000848  00000-0  69525-3 0  9998
2 42206  82.9150 277.5644 0041838 118.9331  62.1567 13.87912377470518
Epoch: 2025-10-11T18:00Z
TLE epoch observation values (Epoch: 2025-10-11T18:00:32.874Z)
Latitude
-1.62849°
Longitude
167.05144°
Altitude
924.904 km
Speed
7.396 km/s
True Right ascension
06h 31m 03s
True Declination
-1° 37' 08"
Sunlit
Object was in daylight at epoch
Visualization orbit readout
Latitude
Unknown
Longitude
Unknown
Altitude
Unknown
Speed
Unknown
Apparent Right ascension
Unknown
Apparent Declination
Unknown
Sunlit
N/A
Visualization observer readout
Local Sidereal Time
21:11:32
Azimuth
Unknown
Elevation
Unknown
Doppler factor
Unknown
Orbital elements
Apogee altitude
963.677 km
Perigee altitude
902.499 km
Semi-major axis
7,311.225 km
Eccentricity
0.00418
Inclination
82.915°
RAAN
277.5644°
Arg. of periapsis
118.9331°
True anomaly
62.58166°
Mean anomaly
62.1567°
Eccentric anomaly
62.36908°
Mean motion
3.47183 °/min
Orbital period
103.69 mins
BSTAR
0.00069525
Loading maneuver chart data...
Computing Atmospheric mass density...
Loading historical data...
Loading historical data...
Loading historical data...
Loading historical data...
Loading historical data...
Loading historical data...
Loading historical data...

Documentation

Showing up to 5 results
|